TimeCST,TemperatureF,Dew PointF,Humidity,Sea Level PressureIn,VisibilityMPH,Wind Direction,Wind SpeedMPH,Gust SpeedMPH,PrecipitationIn,Events,Conditions,WindDirDegrees,DateUTC
12:08 AM,12.2,10.4,92,30.10,10.0,North,11.5,-,N/A,Snow,Light Snow,350,1999-01-02 06:08:00
12:35 AM,8.6,6.8,92,30.10,9.0,NNW,10.4,-,0.00,Snow,Light Snow,340,1999-01-02 06:35:00
12:54 AM,9.0,5.0,84,30.16,10.0,NNW,9.2,-,0.00,,Scattered Clouds,330,1999-01-02 06:54:00
1:54 AM,1.0,-0.9,91,30.13,10.0,North,6.9,-,N/A,,Clear,350,1999-01-02 07:54:00
2:54 AM,1.0,-0.9,91,30.16,10.0,NNW,9.2,-,N/A,,Clear,330,1999-01-02 08:54:00
3:54 AM,1.9,-0.0,91,30.14,10.0,NW,9.2,-,N/A,,Clear,320,1999-01-02 09:54:00
4:41 AM,5.0,1.4,85,30.05,9.0,NW,10.4,-,0.00,Snow,Light Snow,320,1999-01-02 10:41:00
4:54 AM,6.1,3.9,91,30.13,7.0,NW,9.2,-,0.00,Snow,Light Snow,320,1999-01-02 10:54:00
5:54 AM,8.1,5.0,87,30.12,8.0,NNW,11.5,-,0.00,Snow,Light Snow,330,1999-01-02 11:54:00
6:30 AM,8.6,5.0,85,30.06,7.0,NW,10.4,-,0.00,Snow,Light Snow,320,1999-01-02 12:30:00
6:54 AM,10.0,7.0,87,30.14,4.0,NNW,13.8,-,0.00,Snow,Light Snow,330,1999-01-02 12:54:00
7:14 AM,10.4,6.8,85,30.06,4.0,NNW,13.8,-,0.00,Snow,Light Snow,330,1999-01-02 13:14:00
7:54 AM,12.0,7.0,80,30.13,5.0,NNW,18.4,-,0.00,Snow,Light Snow,330,1999-01-02 13:54:00
8:08 AM,12.2,8.6,85,30.06,1.5,NW,20.7,25.3,0.00,Snow,Light Snow,320,1999-01-02 14:08:00
8:40 AM,10.4,5.0,79,30.06,4.0,NNW,21.9,29.9,0.00,,Overcast,330,1999-01-02 14:40:00
8:54 AM,10.0,3.9,76,30.14,4.0,NW,20.7,33.4,0.00,Snow,Blowing Snow,320,1999-01-02 14:54:00
9:32 AM,8.6,3.2,79,30.08,2.5,NNW,21.9,32.2,N/A,Snow,Blowing Snow,330,1999-01-02 15:32:00
9:42 AM,8.6,3.2,79,30.08,1.5,NW,20.7,-,N/A,Snow,Blowing Snow,320,1999-01-02 15:42:00
9:54 AM,9.0,3.9,80,30.16,1.5,NW,23.0,29.9,N/A,Snow,Blowing Snow,320,1999-01-02 15:54:00
10:01 AM,8.6,5.0,85,30.09,1.0,NNW,27.6,-,0.00,Snow,Light Snow,330,1999-01-02 16:01:00
10:20 AM,8.6,5.0,85,30.09,0.8,NW,23.0,32.2,0.00,Snow,Light Snow,320,1999-01-02 16:20:00
10:40 AM,8.6,5.0,85,30.09,0.8,NW,26.5,31.1,0.00,Snow,Light Snow,320,1999-01-02 16:40:00
10:54 AM,9.0,3.9,80,30.16,0.8,NW,25.3,32.2,0.00,Snow,Light Snow,320,1999-01-02 16:54:00
11:07 AM,8.6,3.2,79,30.09,0.8,NW,25.3,32.2,0.00,Snow,Light Snow,320,1999-01-02 17:07:00
11:41 AM,8.6,3.2,79,30.08,0.8,NW,26.5,33.4,0.00,Snow,Light Snow,320,1999-01-02 17:41:00
11:54 AM,9.0,3.9,80,30.14,1.0,NW,23.0,-,0.00,Snow,Light Snow,320,1999-01-02 17:54:00
12:39 PM,8.6,3.2,79,30.06,1.0,NW,25.3,29.9,0.00,Snow,Light Snow,320,1999-01-02 18:39:00
12:54 PM,8.1,3.0,80,30.14,1.0,NW,21.9,31.1,0.00,Snow,Light Snow,320,1999-01-02 18:54:00
1:11 PM,8.6,3.2,79,30.06,0.8,NW,21.9,32.2,0.00,Snow,Light Snow,320,1999-01-02 19:11:00
1:21 PM,8.6,3.2,79,30.06,1.5,NW,25.3,29.9,0.00,Snow,Light Snow,320,1999-01-02 19:21:00
1:37 PM,8.6,3.2,79,30.06,2.0,NNW,21.9,-,0.00,Snow,Light Snow,330,1999-01-02 19:37:00
1:54 PM,9.0,5.0,84,30.15,1.0,NW,23.0,29.9,0.00,Snow,Light Snow,320,1999-01-02 19:54:00
2:09 PM,10.4,5.0,79,30.06,1.0,NNW,27.6,32.2,0.00,Snow,Light Snow,330,1999-01-02 20:09:00
2:20 PM,10.4,5.0,79,30.06,0.8,NNW,21.9,29.9,0.00,Snow,Light Snow,330,1999-01-02 20:20:00
2:54 PM,10.0,6.1,84,30.14,0.8,NNW,25.3,28.8,0.00,Snow,Light Snow,330,1999-01-02 20:54:00
3:00 PM,10.4,5.0,79,30.06,1.0,NNW,25.3,34.5,0.00,Snow,Light Snow,330,1999-01-02 21:00:00
3:07 PM,10.4,5.0,79,30.07,0.8,NNW,24.2,34.5,0.00,Snow,Light Snow,330,1999-01-02 21:07:00
3:18 PM,10.4,5.0,79,30.07,1.8,NNW,21.9,32.2,0.00,Rain-Snow,Freezing Rain,330,1999-01-02 21:18:00
3:25 PM,10.4,5.0,79,30.07,2.5,NNW,23.0,29.9,0.00,Snow,Light Snow,330,1999-01-02 21:25:00
3:54 PM,10.0,5.0,80,30.17,3.0,NW,21.9,27.6,0.00,Snow,Blowing Snow,320,1999-01-02 21:54:00
4:03 PM,10.4,5.0,79,30.09,4.0,NNW,23.0,27.6,N/A,Snow,Blowing Snow,330,1999-01-02 22:03:00
4:54 PM,9.0,3.9,80,30.19,4.0,NW,23.0,29.9,N/A,Snow,Blowing Snow,320,1999-01-02 22:54:00
5:54 PM,8.1,3.0,80,30.21,3.0,NNW,21.9,28.8,N/A,Snow,Blowing Snow,330,1999-01-02 23:54:00
6:30 PM,8.6,1.4,73,30.14,-9999.0,NW,20.7,-,N/A,,Scattered Clouds,320,1999-01-03 00:30:00
6:37 PM,8.6,3.2,79,30.14,8.0,NNW,20.7,-,N/A,,Mostly Cloudy,330,1999-01-03 00:37:00
6:54 PM,7.0,1.0,77,30.22,4.0,NNW,24.2,-,0.00,Snow,Light Snow,330,1999-01-03 00:54:00
7:54 PM,6.1,1.0,80,30.23,4.0,NW,23.0,28.8,0.00,Snow,Light Snow,320,1999-01-03 01:54:00
8:31 PM,6.8,1.4,79,30.16,4.0,NW,19.6,28.8,0.00,Snow,Light Snow,320,1999-01-03 02:31:00
8:54 PM,7.0,1.9,80,30.24,4.0,NW,20.7,31.1,0.00,Snow,Light Snow,320,1999-01-03 02:54:00
9:54 PM,6.1,1.0,80,30.24,3.0,NW,25.3,32.2,0.00,Snow,Light Snow,320,1999-01-03 03:54:00
10:54 PM,5.0,-0.0,80,30.25,5.0,NW,20.7,28.8,0.00,Snow,Light Snow,320,1999-01-03 04:54:00
11:54 PM,3.9,-0.0,84,30.27,3.0,NW,19.6,31.1,0.00,Snow,Light Snow,320,1999-01-03 05:54:00